| time (UTC) | temp C | wind direction | speed KPH | gust KPH | rain 1hr cm | rain 24hr cm | rain mn cm | humidity % | barometer mb |
| 20260510104228 | 11 | 175 | 8.0 | 11.3 | 0.00 | 0.08 | 0.08 | 89 | 1006.8 |
| 20260510103725 | 11 | 175 | 8.0 | 11.3 | 0.00 | 0.08 | 0.08 | 89 | 1006.8 |
| 20260510102702 | 11 | 233 | 14.5 | 16.1 | 0.00 | 0.08 | 0.08 | 87 | 1006.6 |
| 20260510101229 | 11 | 233 | 16.1 | 17.7 | 0.00 | 0.08 | 0.08 | 87 | 1006.7 |
| 20260510095711 | 10 | 235 | 9.7 | 9.7 | 0.00 | 0.08 | 0.08 | 91 | 1006.4 |
| 20260510095216 | 10 | 235 | 9.7 | 9.7 | 0.00 | 0.08 | 0.08 | 91 | 1006.4 |
| 20260510094202 | 10 | 179 | 9.7 | 12.9 | 0.00 | 0.08 | 0.08 | 91 | 1006.4 |
| 20260510092702 | 10 | 194 | 12.9 | 16.1 | 0.00 | 0.08 | 0.08 | 91 | 1006.0 |
| 20260510091202 | 10 | 196 | 11.3 | 11.3 | 0.00 | 0.08 | 0.08 | 91 | 1005.9 |
| 20260510085702 | 10 | 181 | 9.7 | 11.3 | 0.00 | 0.08 | 0.08 | 91 | 1005.8 |
| 20260510085212 | 10 | 181 | 9.7 | 11.3 | 0.00 | 0.08 | 0.08 | 91 | 1005.8 |
| 20260510084202 | 10 | 205 | 11.3 | 16.1 | 0.00 | 0.08 | 0.08 | 92 | 1005.7 |
| 20260510082729 | 10 | 167 | 14.5 | 16.1 | 0.00 | 0.08 | 0.08 | 91 | 1005.6 |
| 20260510082212 | 10 | 167 | 14.5 | 16.1 | 0.00 | 0.08 | 0.08 | 91 | 1005.6 |
| 20260510075702 | 10 | 173 | 16.1 | 16.1 | 0.00 | 0.08 | 0.08 | 92 | 1005.5 |
| 20260510074202 | 10 | 183 | 12.9 | 16.1 | 0.00 | 0.08 | 0.08 | 91 | 1005.6 |
| 20260510072243 | 10 | 180 | 11.3 | 16.1 | 0.00 | 0.08 | 0.08 | 92 | 1005.5 |
| 20260510071235 | 10 | 174 | 14.5 | 17.7 | 0.00 | 0.08 | 0.08 | 92 | 1005.3 |
| 20260510065702 | 10 | 193 | 16.1 | 19.3 | 0.03 | 0.08 | 0.08 | 92 | 1005.1 |
| 20260510062728 | 10 | 157 | 19.3 | 22.5 | 0.08 | 0.08 | 0.08 | 92 | 1005.0 |
| 20260510061202 | 10 | 172 | 16.1 | 17.7 | 0.08 | 0.08 | 0.08 | 92 | 1005.2 |
| 20260510055705 | 10 | 189 | 16.1 | 24.1 | 0.03 | 0.03 | 0.03 | 92 | 1005.4 |
| 20260510054209 | 11 | 187 | 19.3 | 24.1 | 0.03 | 0.03 | 0.03 | 91 | 1005.7 |
| 20260510052708 | 11 | 185 | 19.3 | 22.5 | 0.00 | 0.00 | 0.00 | 90 | 1005.4 |
| 20260510051202 | 11 | 176 | 19.3 | 25.7 | 0.00 | 0.00 | 0.00 | 87 | 1005.7 |
| 20260510045711 | 11 | 188 | 22.5 | 29.0 | 0.00 | 0.00 | 0.00 | 87 | 1005.1 |
| 20260510044228 | 10 | 202 | 22.5 | 32.2 | 0.00 | 0.00 | 0.00 | 87 | 1005.1 |
| 20260510041211 | 10 | 175 | 22.5 | 27.4 | 0.00 | 0.00 | 0.00 | 87 | 1004.9 |
| 20260510035702 | 10 | 163 | 25.7 | 41.8 | 0.00 | 0.00 | 0.00 | 87 | 1005.2 |
| 20260510033740 | 10 | 158 | 24.1 | 29.0 | 0.00 | 0.00 | 0.00 | 87 | 1005.6 |
| 20260510032702 | 10 | 157 | 22.5 | 25.7 | 0.00 | 0.00 | 0.00 | 87 | 1005.6 |
| 20260510031202 | 10 | 164 | 22.5 | 33.8 | 0.00 | 0.00 | 0.00 | 87 | 1005.2 |
| 20260510025702 | 11 | 170 | 25.7 | 29.0 | 0.00 | 0.00 | 0.00 | 87 | 1005.5 |
| 20260510025219 | 11 | 170 | 25.7 | 29.0 | 0.00 | 0.00 | 0.00 | 87 | 1005.5 |
| 20260510022706 | 10 | 176 | 25.7 | 29.0 | 0.00 | 0.00 | 0.00 | 87 | 1005.9 |
| 20260510021209 | 10 | 178 | 22.5 | 27.4 | 0.00 | 0.00 | 0.00 | 87 | 1006.2 |
| 20260510015711 | 10 | 165 | 20.9 | 32.2 | 0.00 | 0.00 | 0.00 | 87 | 1006.4 |
| 20260510012710 | 11 | 160 | 25.7 | 32.2 | 0.00 | 0.00 | 0.00 | 85 | 1006.3 |
| 20260510011204 | 11 | 174 | 22.5 | 32.2 | 0.00 | 0.00 | 0.00 | 84 | 1006.2 |
| 20260510005705 | 11 | 158 | 24.1 | 33.8 | 0.00 | 0.00 | 0.00 | 82 | 1005.8 |
| 20260510004205 | 11 | 177 | 25.7 | 35.4 | 0.00 | 0.00 | 0.00 | 81 | 1006.4 |
| 20260510002710 | 11 | 172 | 29.0 | 33.8 | 0.00 | 0.00 | 0.00 | 80 | 1006.1 |
| 20260510001203 | 11 | 158 | 22.5 | 35.4 | 0.00 | 0.00 | 0.00 | 77 | 1006.3 |
| 20260510000713 | 11 | 158 | 22.5 | 35.4 | 0.00 | 0.00 | 0.00 | 77 | 1006.0 |
| 20260509235712 | 12 | 164 | 24.1 | 33.8 | 0.00 | 0.00 | 0.00 | 76 | 1006.0 |
| 20260509232703 | 12 | 175 | 29.0 | 35.4 | 0.00 | 0.00 | 0.00 | 74 | 1006.1 |
| 20260509231203 | 12 | 164 | 25.7 | 32.2 | 0.00 | 0.00 | 0.00 | 72 | 1006.3 |
| 20260509225703 | 13 | 167 | 27.4 | 37.0 | 0.00 | 0.00 | 0.00 | 69 | 1006.4 |
| 20260509224203 | 13 | 170 | 30.6 | 41.8 | 0.00 | 0.00 | 0.00 | 69 | 1006.5 |
| 20260509222728 | 13 | 170 | 30.6 | 45.1 | 0.00 | 0.00 | 0.00 | 67 | 1006.4 |
| 20260509221202 | 13 | 172 | 35.4 | 43.5 | 0.00 | 0.00 | 0.00 | 66 | 1006.1 |
| 20260509215702 | 14 | 173 | 29.0 | 45.1 | 0.00 | 0.00 | 0.00 | 65 | 1006.3 |
| 20260509214202 | 14 | 165 | 30.6 | 35.4 | 0.00 | 0.00 | 0.00 | 61 | 1006.5 |
| 20260509212702 | 14 | 157 | 30.6 | 35.4 | 0.00 | 0.00 | 0.00 | 59 | 1006.6 |
| 20260509211202 | 15 | 167 | 32.2 | 41.8 | 0.00 | 0.00 | 0.00 | 57 | 1006.5 |
| 20260509205703 | 15 | 161 | 30.6 | 35.4 | 0.00 | 0.00 | 0.00 | 55 | 1006.5 |
| 20260509204202 | 15 | 178 | 27.4 | 33.8 | 0.00 | 0.00 | 0.00 | 52 | 1006.7 |
| 20260509201202 | 16 | 188 | 24.1 | 33.8 | 0.00 | 0.00 | 0.00 | 44 | 1007.0 |
| 20260509195702 | 16 | 171 | 24.1 | 33.8 | 0.00 | 0.00 | 0.00 | 41 | 1007.0 |
| 20260509194229 | 17 | 157 | 27.4 | 32.2 | 0.00 | 0.00 | 0.00 | 38 | 1007.3 |
| 20260509192702 | 17 | 179 | 22.5 | 25.7 | 0.00 | 0.00 | 0.00 | 36 | 1007.2 |
| 20260509191202 | 17 | 193 | 22.5 | 30.6 | 0.00 | 0.00 | 0.00 | 37 | 1007.3 |
| 20260509185728 | 17 | 178 | 24.1 | 30.6 | 0.00 | 0.00 | 0.00 | 32 | 1007.3 |
| 20260509182728 | 16 | 176 | 30.6 | 35.4 | 0.00 | 0.00 | 0.00 | 34 | 1007.7 |
| 20260509181202 | 16 | 165 | 29.0 | 35.4 | 0.00 | 0.00 | 0.00 | 30 | 1007.9 |
| 20260509175702 | 17 | 173 | 22.5 | 25.7 | 0.00 | 0.00 | 0.00 | 28 | 1008.3 |
| 20260509174202 | 16 | 172 | 20.9 | 32.2 | 0.00 | 0.00 | 0.00 | 28 | 1008.6 |
| 20260509172702 | 16 | 182 | 22.5 | 32.2 | 0.00 | 0.00 | 0.00 | 26 | 1008.6 |
| 20260509171202 | 16 | 168 | 22.5 | 27.4 | 0.00 | 0.00 | 0.00 | 27 | 1009.0 |
| 20260509165703 | 16 | 167 | 24.1 | 30.6 | 0.00 | 0.00 | 0.00 | 27 | 1009.1 |
| 20260509164202 | 16 | 158 | 24.1 | 24.1 | 0.00 | 0.00 | 0.00 | 29 | 1009.2 |
| 20260509162702 | 16 | 169 | 22.5 | 27.4 | 0.00 | 0.00 | 0.00 | 31 | 1009.3 |
| 20260509161202 | 16 | 161 | 22.5 | 27.4 | 0.00 | 0.00 | 0.00 | 32 | 1009.6 |
| 20260509155702 | 15 | 151 | 22.5 | 29.0 | 0.00 | 0.00 | 0.00 | 33 | 1010.1 |
| 20260509154202 | 15 | 171 | 22.5 | 32.2 | 0.00 | 0.00 | 0.00 | 31 | 1009.9 |
| 20260509152702 | 14 | 185 | 19.3 | 27.4 | 0.00 | 0.00 | 0.00 | 33 | 1010.2 |
| 20260509151202 | 14 | 164 | 20.9 | 25.7 | 0.00 | 0.00 | 0.00 | 37 | 1010.3 |
| 20260509145702 | 13 | 167 | 19.3 | 29.0 | 0.00 | 0.00 | 0.00 | 40 | 1010.8 |
| 20260509144229 | 13 | 161 | 29.0 | 32.2 | 0.00 | 0.00 | 0.00 | 40 | 1010.6 |
| 20260509142728 | 13 | 178 | 24.1 | 24.1 | 0.00 | 0.00 | 0.00 | 40 | 1010.7 |
| 20260509141202 | 12 | 170 | 19.3 | 24.1 | 0.00 | 0.00 | 0.00 | 43 | 1010.6 |
| 20260509135702 | 12 | 167 | 22.5 | 32.2 | 0.00 | 0.00 | 0.00 | 44 | 1010.6 |
| 20260509134202 | 12 | 171 | 20.9 | 29.0 | 0.00 | 0.00 | 0.00 | 45 | 1010.9 |
| 20260509132728 | 11 | 166 | 17.7 | 25.7 | 0.00 | 0.00 | 0.00 | 48 | 1011.0 |
| 20260509131202 | 11 | 147 | 19.3 | 24.1 | 0.00 | 0.00 | 0.00 | 48 | 1011.0 |
| 20260509125702 | 11 | 164 | 20.9 | 24.1 | 0.00 | 0.00 | 0.00 | 48 | 1011.1 |
| 20260509124202 | 10 | 172 | 14.5 | 19.3 | 0.00 | 0.00 | 0.00 | 51 | 1011.1 |
| 20260509115702 | 8 | 176 | 14.5 | 16.1 | 0.00 | 0.00 | 0.00 | 60 | 1011.3 |
| 20260509114202 | 7 | 189 | 12.9 | 14.5 | 0.00 | 0.00 | 0.00 | 62 | 1011.2 |
| 20260509112702 | 7 | 174 | 14.5 | 17.7 | 0.00 | 0.00 | 0.00 | 63 | 1011.3 |
| 20260509111202 | 6 | 177 | 12.9 | 17.7 | 0.00 | 0.00 | 0.00 | 66 | 1011.3 |
| 20260509105702 | 5 | 182 | 14.5 | 16.1 | 0.00 | 0.00 | 0.00 | 69 | 1011.0 |